www.pogodaiklimat.ru

Погода и климат >> Архив погоды >> Россия >> Приморский край >> Владивосток


АРХИВ ПОГОДЫ в Владивостоке

Время (UTC), дата Ветер
(напр.,м/с)
 
Видим.   Явления Облачность Т
(С)
Тd
(С)
f
(%)
Тe
(С)
Тes
(С)
Комфортность P
(гПа)
Po
(гПа)
Тmin
(С)
Tmax
(С)
R
(мм)
R24
(мм)
S
(см)
06 17.07 Ю 8-10
{12}
200 м морось {туман} туман ?/? +15.7 +15.7 100 +14 +14 холодно 1011.0 988.9
09 17.07 Ю 8-11
{12}
50 м слаб. морось {туман} туман ?/? +16.1 +16.1 100 +14 +14 прохладно 1010.3 988.3 +16.2 0.8
12 17.07 Ю 6
{11}
50 м слаб. морось {туман} туман ?/? +16.7 +16.7 100 +16 +16 по сезону 1011.1 989.1
15 17.07 Ю 6 50 м слаб. морось {туман} туман ?/? +16.9 +16.9 100 +16 +16 по сезону 1010.9 988.9
18 17.07 Ю 6
{11}
50 м слаб. морось {туман} туман ?/? +17.2 +17.2 100 +16 +16 по сезону 1009.7 987.8
21 17.07 Ю 7
{10}
50 м слаб. морось {туман} туман ?/? +17.6 +17.6 100 +17 +17 по сезону 1009.7 987.8 +16.1 0.9
00 18.07 Ю 5
{10}
50 м туман ?/? +18.3 +18.3 100 +18 +18 по сезону 1009.2 987.3
03 18.07 Ю 5 <100 м туман ?/? +18.5 +18.5 100 +19 +19 по сезону 1008.9 987.1
06 18.07 Ю 6 500 м туман ?/? +19.6 +19.6 100 +22 +22 комфорт 1007.3 985.7
09 18.07 Ю 5 200 м туман ?/? +18.2 +18.2 100 +18 +18 по сезону 1007.2 985.4 +19.9 0.0
12 18.07 Ю 6 50 м туман ?/? +18.2 +18.2 100 +18 +18 тепло 1007.8 986.0
15 18.07 Ю 6 200 м туман ?/? +18.0 +18.0 100 +17 +17 по сезону 1007.5 985.6
18 18.07 Ю 5 200 м туман ?/? +17.7 +17.7 100 +17 +17 по сезону 1007.8 985.9
21 18.07 Ю 4 50 м туман {дождь} ?/? +18.1 +18.1 100 +18 +18 тепло 1008.0 986.2 +17.3 1
00 19.07 Ю 5 50 м туман {дождь} ?/? +18.3 +18.3 100 +18 +18 по сезону 1008.4 986.6
03 19.07 Ю 5 10 км в посл. час туман 9/9 200 м
[St]
+19.4 +19.1 98 +22 +23 комфорт 1008.4 986.7
06 19.07 Ю 6 200 м туман ?/? +19.5 +19.5 100 +22 +22 комфорт 1008.0 986.3
09 19.07 Ю 6 200 м туман ?/? +18.9 +18.9 100 +20 +20 тепло 1008.3 986.6 +19.9 0.0
12 19.07 ЮВ 6 200 м слаб. морось {туман} туман ?/? +18.6 +18.6 100 +19 +19 тепло 1009.8 988.0
15 19.07 Ю 6 200 м морось {туман} ?/? +18.5 +18.5 100 +19 +19 тепло 1010.2 988.4
18 19.07 Ю 4 200 м слаб. морось {туман} ?/? +18.4 +18.4 100 +19 +19 тепло 1010.2 988.4
21 19.07 ЮВ 4 50 м туман ?/? +18.6 +18.6 100 +20 +20 тепло 1011.3 989.4 +18.2 0.9
00 20.07 Ю 7 200 м туман ?/? +18.7 +18.7 100 +19 +19 тепло 1012.0 990.1
03 20.07 Ю 6 20 км {морось, туман} 10/10 600 м
[Sc]
+19.1 +18.8 98 +21 +21 комфорт 1012.4 990.6
06 20.07 Ю 8-11
{11}
50 км {морось, туман} 10/10 600 м
[Sc]
+20.1 +18.8 92 +23 +23 комфорт 1011.6 989.8
09 20.07 ЮВ 8-11
{11}
200 м слаб. морось {туман} туман ?/? +18.8 +18.8 100 +19 +19 по сезону 1010.9 989.1 +21.2 0.6
12 20.07 ЮВ 10-14
{15}
200 м слаб. морось {туман} туман ?/? +19.8 +19.8 100 +22 +22 комфорт 1011.4 989.6
15 20.07 ЮВ 10-14
{15}
200 м слаб. морось {туман} туман ?/? +19.9 +19.9 100 +22 +22 комфорт 1010.6 988.9
18 20.07 ЮВ 13-17
{17}
200 м слаб. морось {туман} туман ?/? +20.1 +20.1 100 +23 +23 комфорт 1010.5 988.8
21 20.07 ЮВ 11-16
{17}
500 м туман ?/? +20.0 +19.7 98 +23 +23 комфорт 1009.8 988.1 +18.9 0.4
00 21.07 ЮВ 10-15
{16}
50 км {морось, туман} 8/3 600 м
[Cu hum Ac cast Cc]
+22.3 +21.8 97 +30 +30 очень
душно
1009.1 987.6
03 21.07 ЮВ 11-17
{18}
50 км 10/10 600 м
[Sc]
+22.0 +20.6 92 +28 +28 душно 1008.5 987.0
06 21.07 ЮВ 11-16
{21}
10 км 10/10 300 м
[St]
+20.0 +19.6 98 +23 +23 комфорт 1007.2 985.5
09 21.07 ЮВ 11-16
{19}
200 м дождь {туман} туман ?/? +20.4 +20.4 100 +24 +24 комфорт 1004.9 983.3 +23.5 6
12 21.07 ЮВ 9-16
{21}
200 м дождь {туман} туман ?/? +20.5 +20.4 99 +24 +24 комфорт 1003.6 982.0
15 21.07 В 8-16
{19}
500 м дождь {туман} туман ?/? +20.1 +20.0 99 +23 +23 комфорт 1000.7 979.2
18 21.07 ЮВ 13-20
{22}
1000 м сильн. дождь {туман} 10/10 200 м
[Frnb]
+19.5 +19.2 98 +21 +21 комфорт 997.1 975.7
21 21.07 ЮВ 9-13
{22}
50 м слаб. дождь {туман} туман ?/? +18.5 +18.5 100 +18 +18 тепло 996.7 975.2 +18.5 62
00 22.07 ЮВ 9-13
{16}
50 м слаб. дождь {туман} туман ?/? +18.7 +18.7 100 +19 +19 тепло 997.3 975.7 +18.3
03 22.07 ЮВ 6
{13}
200 м слаб. морось {дождь} туман ?/? +18.7 +18.7 100 +19 +19 по сезону 998.0 976.5
06 22.07 ЮВ 3 200 м туман {дождь} ?/? +19.6 +19.6 100 +23 +23 комфорт 998.8 977.3
09 22.07 ЮЗ 2 10 км {морось, туман} 10/10 200 м
[St]
+19.8 +19.7 99 +24 +24 комфорт 999.3 977.8 +20.6 7
12 22.07 ЮЗ 3 50 м туман ?/? +18.5 +18.5 100 +20 +20 тепло 1001.4 979.7
15 22.07 ЮЗ 2 500 м слаб. дождь {туман} ?/? +18.9 +18.9 100 +21 +21 комфорт 1001.5 979.9
18 22.07 З 3 200 м туман {дождь} ?/? +19.0 +19.0 100 +21 +21 комфорт 1001.4 979.8
21 22.07 Ю 1 200 м туман ?/? +19.1 +19.1 100 +22 +22 комфорт 1002.1 980.5 +18.4 3
00 23.07 ЮВ 3 500 м туман ?/? +20.4 +20.4 100 +25 +25 комфорт 1002.2 980.7
03 23.07 ЮВ 4 20 км {туман} 3/3 600 м
[Sc]
+22.9 +22.5 98 +31 +40 очень
душно
1001.4 980.2
06 23.07 ЮВ 5 50 км {туман} ясно +24.9 +22.8 88 +33 +39 очень
душно
1001.1 979.6
09 23.07 ЮЗ 2 50 км 4/0
[Ci fib]
+24.3 +20.8 81 +30 +32 очень
душно
1001.3 980.1 +25.6
12 23.07 ЮВ 5 500 м туман ?/? +19.2 +19.0 99 +21 +21 комфорт 1002.4 980.8
15 23.07 ЮВ 4 200 м туман ?/? +19.4 +19.3 99 +22 +22 комфорт 1003.2 981.6
18 23.07 Ю 2 200 м туман ?/? +19.8 +19.8 100 +24 +24 комфорт 1003.1 981.6
21 23.07 ЮВ 1 200 м гроза, ливневой дождь туман ?/? +19.2 +19.2 100 +22 +22 комфорт 1003.9 982.3 +18.9 3
00 24.07 ЮВ 6 500 м туман {гроза, ливн. осадки} ?/? +20.2 +20.2 100 +24 +24 комфорт 1003.1 981.6
03 24.07 Ю 8
{11}
20 км в посл. час туман 8/8 600 м
[Sc]
+21.5 +21.0 97 +27 +28 душно 1003.0 981.5

 

Местоположение метеостанции Владивосток (Приморский край, Россия): широта 43.12 долгота 131.90 высота над уровнем моря 188 м.

В архиве по умолчанию представлена погода в Владивостоке за последнюю неделю. Архивные данные за месяц целиком и за предыдущие месяцы, начиная с января 2011 года, Вы можете получить, выбрав интересующий диапазон дат из раскрывающегося списка и нажав кнопку "Ввод!".


*Определитесь, кто Вы:
робот инопланетянин человек

Внимание! Время в таблицах - всемирное. Для получения местного времени необходимо прибавить поправку, которая равна 10 ч.

Смотрите также архив погоды в соседних городах и на ближайших метеорологических станциях:

Погода на Мысе Назимова (Приморский край, Россия) (8 км)
Погода в Барабаше (Приморский край, Россия) (42 км)
Погода в Многоудобном (Приморский край, Россия) (60 км)
Погода в Находке (Приморский край, Россия) (81 км)
Погода в Гамове (Приморский край, Россия) (84 км)
Погода в Тимирязевском (Приморский край, Россия) (85 км)
Погода в Партизанске (Приморский край, Россия) (89 км)
Погода в Посьете (Приморский край, Россия) (104 км)
Погода в Полтавке (Приморский край, Россия) (112 км)
Погода в Анучино (Приморский край, Россия) (130 км)

Пояснения к столбцам:

Ветер - указаны скорость ветра в м/с - средняя за 10 мин, порывы в срок и между сроками (в фигурных скобках) и направление, откуда дует ветер: С - северный, СВ - северо-восточный, В - восточный, ЮВ - юго-восточный, Ю - южный, ЮЗ - юго-западный, З - западный, СЗ - северо-западный.
Видимость - горизонтальная дальность видимости в метрах или километрах. При видимости от 1 до 10 км при отсутствии осадков обычно наблюдается дымка, при ухудшении видимости до 1 км и менее - туман. В сухую погоду видимость может ухудшаться дымом, пылью или мглою.
Явления - указаны атмосферные явления, наблюдавшиеся в срок или в последний час перед сроком; фигурными скобками обозначены явления, наблюдавшиеся между сроками (за 1-3 часа до срока); квадратными скобками обозначены град или гололедные отложения с указанием их диаметра в мм.
Облачность - указаны через наклонную черту общая и нижняя облачность в баллах и высота нижней границы облаков в метрах; квадратными скобками обозначены формы облаков: Ci - перистые, Cs - перисто-слоистые, Cc - перисто-кучевые, Ac - высококучевые, As - высокослоистые, Sc - слоисто-кучевые, Ns - слоисто-дождевые, Cu - кучевые, Cb - кучево-дождевые. Подробнее классификацию облаков см. в Атласе облаков (PDF).
T - Температура воздуха - температура, измеренная на высоте 2 м над землей.
Td - Температура точки росы - температура, при понижении до которой содержащийся в воздухе водяной пар достигнет насыщения.
f - Относительная влажность воздуха - влажноcть воздуха, измеренная на высоте 2 м над землей.
Te - Эффективная температура - температура, которую ощущает одетый по сезону человек в тени. Характеристика душности погоды. При расчете учитывается влияние влажности воздуха и скорости ветра на теплоощущения человека.
Tes - Эффективная температура на солнце - температура, которую ощущает человек, с поправкой на солнечный нагрев. Характеристика знойности погоды. Зависит от высоты солнца над горизонтом, облачности и скорости ветра. Ночью, в пасмурную погоду, а также при ветре 12 м/с и более поправка равна нулю.
P - Атмосферное давление - приведенное к уровню моря атмосферное давление.
Po - Атмосферное давление - измеренное на уровне метеостанции атмосферное давление.
Tmin - Минимальная температура - минимум температуры воздуха на высоте 2 м над землей.
Tmax - Максимальная температура - максимум температуры воздуха на высоте 2 м над землей.
R - Количество осадков - Количество выпавших осадков за период времени, мм. При наведении курсора мыши на число - период времени, за который выпало указанное количество осадков.
R24 - Количество осадков - Количество выпавших осадков за 24 часа, мм.
S - Снежный покров - Высота снежного покрова, см. При наведении курсора мыши на число - состояние снежного покрова и степень покрытия местности в баллах.